| time (UTC) | temp F | wind direction | speed MPH | gust MPH | rain 1hr in | rain 24hr in | rain mn in | humidity % | barometer mb |
| 20260504213547 | 82 | 24 | 2.0 | 7.0 | 0.00 | 0.02 | 0.01 | 63 | 1010.2 |
| 20260504213056 | 82 | 85 | 1.0 | 9.0 | 0.00 | 0.02 | 0.01 | 63 | 1010.3 |
| 20260504212547 | 82 | 35 | 0.0 | 9.0 | 0.00 | 0.02 | 0.01 | 64 | 1010.6 |
| 20260504212047 | 82 | 33 | 1.0 | 6.0 | 0.00 | 0.02 | 0.01 | 64 | 1010.6 |
| 20260504211553 | 82 | 0 | 1.0 | 6.0 | 0.00 | 0.02 | 0.01 | 64 | 1010.7 |
| 20260504211052 | 82 | 12 | 2.0 | 6.0 | 0.00 | 0.02 | 0.01 | 63 | 1010.6 |
| 20260504210548 | 82 | 20 | 1.0 | 9.0 | 0.00 | 0.02 | 0.01 | 64 | 1010.9 |
| 20260504210109 | 81 | 17 | 2.0 | 9.0 | 0.00 | 0.02 | 0.01 | 64 | 1010.9 |
| 20260504205550 | 81 | 12 | 1.0 | 10.0 | 0.00 | 0.02 | 0.01 | 64 | 1011.0 |
| 20260504205044 | 81 | 16 | 2.0 | 10.0 | 0.00 | 0.02 | 0.01 | 64 | 1011.0 |
| 20260504204602 | 81 | 18 | 2.0 | 9.0 | 0.00 | 0.02 | 0.01 | 64 | 1011.0 |
| 20260504204048 | 81 | 0 | 1.0 | 9.0 | 0.00 | 0.02 | 0.01 | 64 | 1011.1 |
| 20260504203548 | 81 | 23 | 2.0 | 9.0 | 0.00 | 0.02 | 0.01 | 64 | 1011.3 |
| 20260504203058 | 81 | 0 | 2.0 | 8.0 | 0.00 | 0.02 | 0.01 | 63 | 1011.5 |
| 20260504202548 | 81 | 22 | 2.0 | 8.0 | 0.00 | 0.02 | 0.01 | 64 | 1011.5 |
| 20260504202047 | 81 | 24 | 1.0 | 8.0 | 0.00 | 0.02 | 0.01 | 66 | 1011.6 |
| 20260504201554 | 81 | 37 | 1.0 | 8.0 | 0.00 | 0.02 | 0.01 | 64 | 1011.7 |
| 20260504201047 | 81 | 22 | 2.0 | 8.0 | 0.00 | 0.02 | 0.01 | 64 | 1011.8 |
| 20260504200547 | 81 | 0 | 1.0 | 9.0 | 0.00 | 0.02 | 0.01 | 64 | 1012.0 |
| 20260504200057 | 81 | 24 | 1.0 | 9.0 | 0.00 | 0.02 | 0.01 | 65 | 1012.0 |
| 20260504195548 | 81 | 14 | 2.0 | 9.0 | 0.00 | 0.02 | 0.01 | 66 | 1012.1 |
| 20260504195047 | 80 | 0 | 1.0 | 8.0 | 0.00 | 0.02 | 0.01 | 65 | 1012.2 |
| 20260504194609 | 80 | 14 | 0.0 | 8.0 | 0.00 | 0.02 | 0.01 | 65 | 1012.4 |
| 20260504194048 | 80 | 21 | 1.0 | 6.0 | 0.00 | 0.02 | 0.01 | 64 | 1012.4 |
| 20260504193548 | 80 | 15 | 2.0 | 10.0 | 0.00 | 0.02 | 0.01 | 65 | 1012.4 |
| 20260504193055 | 80 | 40 | 2.0 | 9.0 | 0.00 | 0.02 | 0.01 | 64 | 1012.5 |
| 20260504192548 | 80 | 24 | 1.0 | 7.0 | 0.00 | 0.02 | 0.01 | 65 | 1012.5 |
| 20260504192048 | 80 | 20 | 2.0 | 9.0 | 0.00 | 0.02 | 0.01 | 65 | 1012.6 |
| 20260504191554 | 80 | 4 | 2.0 | 9.0 | 0.00 | 0.02 | 0.01 | 64 | 1012.9 |
| 20260504191048 | 80 | 18 | 3.0 | 7.0 | 0.00 | 0.02 | 0.01 | 64 | 1013.0 |
| 20260504190545 | 80 | 31 | 1.0 | 10.0 | 0.00 | 0.02 | 0.01 | 64 | 1012.9 |
| 20260504190125 | 80 | 16 | 2.0 | 10.0 | 0.00 | 0.02 | 0.01 | 64 | 1012.9 |
| 20260504185546 | 80 | 49 | 2.0 | 6.0 | 0.00 | 0.02 | 0.01 | 67 | 1013.0 |
| 20260504185046 | 80 | 12 | 1.0 | 9.0 | 0.00 | 0.02 | 0.01 | 65 | 1013.0 |
| 20260504184558 | 80 | 31 | 3.0 | 9.0 | 0.00 | 0.02 | 0.01 | 64 | 1013.0 |
| 20260504184047 | 80 | 13 | 1.0 | 8.0 | 0.00 | 0.02 | 0.01 | 65 | 1013.1 |
| 20260504183547 | 80 | 81 | 2.0 | 8.0 | 0.00 | 0.02 | 0.01 | 65 | 1013.1 |
| 20260504183058 | 79 | 0 | 1.0 | 8.0 | 0.00 | 0.02 | 0.01 | 66 | 1013.4 |
| 20260504182547 | 79 | 30 | 3.0 | 8.0 | 0.00 | 0.02 | 0.01 | 66 | 1013.4 |
| 20260504182048 | 78 | 18 | 1.0 | 5.0 | 0.00 | 0.02 | 0.01 | 68 | 1013.6 |
| 20260504181600 | 78 | 0 | 1.0 | 5.0 | 0.00 | 0.02 | 0.01 | 69 | 1013.7 |
| 20260504181048 | 77 | 16 | 1.0 | 6.0 | 0.00 | 0.02 | 0.01 | 71 | 1013.6 |
| 20260504180546 | 77 | 59 | 1.0 | 6.0 | 0.00 | 0.02 | 0.01 | 70 | 1013.6 |
| 20260504180144 | 76 | 22 | 1.0 | 6.0 | 0.00 | 0.02 | 0.01 | 70 | 1013.6 |
| 20260504175547 | 76 | 18 | 1.0 | 8.0 | 0.00 | 0.02 | 0.01 | 71 | 1013.7 |
| 20260504175049 | 76 | 14 | 1.0 | 8.0 | 0.00 | 0.02 | 0.01 | 71 | 1013.9 |
| 20260504174556 | 75 | 25 | 0.0 | 5.0 | 0.00 | 0.02 | 0.01 | 72 | 1013.9 |
| 20260504174049 | 75 | 0 | 0.0 | 4.0 | 0.00 | 0.02 | 0.01 | 71 | 1013.9 |
| 20260504173546 | 75 | 26 | 1.0 | 5.0 | 0.00 | 0.02 | 0.01 | 71 | 1014.4 |
| 20260504173127 | 75 | 0 | 0.0 | 5.0 | 0.00 | 0.02 | 0.01 | 71 | 1014.5 |
| 20260504172547 | 75 | 0 | 1.0 | 6.0 | 0.00 | 0.02 | 0.01 | 71 | 1014.5 |
| 20260504172047 | 75 | 19 | 1.0 | 6.0 | 0.00 | 0.02 | 0.01 | 71 | 1014.6 |
| 20260504171558 | 75 | 103 | 2.0 | 11.0 | 0.00 | 0.02 | 0.01 | 71 | 1014.6 |
| 20260504171047 | 75 | 27 | 2.0 | 11.0 | 0.00 | 0.02 | 0.01 | 72 | 1014.6 |
| 20260504170550 | 74 | 46 | 1.0 | 10.0 | 0.00 | 0.02 | 0.01 | 73 | 1014.6 |
| 20260504151047 | 70 | 24 | 0.0 | 7.0 | 0.00 | 0.03 | 0.01 | 78 | 1015.4 |
| 20260504150547 | 70 | 0 | 2.0 | 7.0 | 0.00 | 0.03 | 0.01 | 77 | 1015.6 |
| 20260504141047 | 66 | 56 | 0.0 | 7.0 | 0.00 | 0.03 | 0.01 | 81 | 1015.5 |
| 20260504140547 | 66 | 0 | 2.0 | 7.0 | 0.00 | 0.03 | 0.01 | 82 | 1015.7 |
| 20260504140109 | 65 | 0 | 1.0 | 4.0 | 0.00 | 0.03 | 0.01 | 83 | 1015.7 |
| 20260504130546 | 61 | 0 | 0.0 | 3.0 | 0.00 | 0.03 | 0.01 | 89 | 1015.7 |
| 20260504120112 | 59 | 0 | 0.0 | 0.0 | 0.00 | 0.03 | 0.01 | 88 | 1015.0 |
| 20260504110547 | 60 | 0 | 0.0 | 0.0 | 0.00 | 0.03 | 0.01 | 87 | 1015.4 |
| 20260504100549 | 61 | 0 | 0.0 | 2.0 | 0.01 | 0.04 | 0.01 | 85 | 1015.5 |
| 20260504081552 | 63 | 0 | 0.0 | 3.0 | 0.00 | 0.03 | 0.00 | 80 | 1016.0 |
| 20260504081047 | 63 | 0 | 0.0 | 3.0 | 0.00 | 0.03 | 0.00 | 79 | 1016.2 |
| 20260504080546 | 64 | 0 | 0.0 | 3.0 | 0.00 | 0.03 | 0.00 | 79 | 1016.1 |
| 20260504050546 | 66 | 0 | 1.0 | 4.0 | 0.00 | 0.03 | 0.00 | 70 | 1018.1 |
| 20260504050138 | 66 | 33 | 0.0 | 4.0 | 0.00 | 0.03 | 0.00 | 69 | 1018.0 |
| 20260504045545 | 66 | 27 | 0.0 | 3.0 | 0.00 | 0.03 | 0.03 | 69 | 1018.2 |
| 20260504045047 | 67 | 0 | 0.0 | 5.0 | 0.00 | 0.03 | 0.03 | 69 | 1018.1 |
| 20260504044559 | 66 | 0 | 0.0 | 5.0 | 0.00 | 0.03 | 0.03 | 69 | 1018.3 |
| 20260504044047 | 66 | 21 | 0.0 | 4.0 | 0.00 | 0.03 | 0.03 | 68 | 1018.2 |
| 20260504043547 | 66 | 21 | 0.0 | 4.0 | 0.00 | 0.03 | 0.03 | 68 | 1018.1 |
| 20260504043100 | 66 | 23 | 0.0 | 6.0 | 0.00 | 0.03 | 0.03 | 69 | 1018.2 |
| 20260504042546 | 66 | 0 | 1.0 | 6.0 | 0.00 | 0.03 | 0.03 | 69 | 1018.3 |
| 20260504042046 | 65 | 0 | 1.0 | 5.0 | 0.00 | 0.03 | 0.03 | 69 | 1018.3 |
| 20260504041555 | 64 | 20 | 0.0 | 3.0 | 0.00 | 0.03 | 0.03 | 70 | 1018.3 |
| 20260504041048 | 63 | 0 | 0.0 | 3.0 | 0.00 | 0.03 | 0.03 | 71 | 1018.3 |
| 20260504040548 | 63 | 0 | 0.0 | 3.0 | 0.00 | 0.03 | 0.03 | 72 | 1018.2 |
| 20260504040104 | 62 | 0 | 0.0 | 0.0 | 0.00 | 0.03 | 0.03 | 75 | 1018.3 |
| 20260504035547 | 62 | 0 | 0.0 | 0.0 | 0.00 | 0.04 | 0.03 | 75 | 1018.2 |
| 20260504035046 | 62 | 0 | 0.0 | 0.0 | 0.00 | 0.04 | 0.03 | 74 | 1018.2 |
| 20260504034553 | 62 | 0 | 0.0 | 0.0 | 0.00 | 0.04 | 0.03 | 74 | 1018.3 |
| 20260504034046 | 62 | 0 | 0.0 | 0.0 | 0.00 | 0.04 | 0.03 | 75 | 1018.2 |
| 20260504033545 | 62 | 0 | 0.0 | 0.0 | 0.00 | 0.04 | 0.03 | 72 | 1018.4 |
| 20260504033051 | 62 | 0 | 0.0 | 0.0 | 0.00 | 0.04 | 0.03 | 72 | 1018.4 |
| 20260504032546 | 62 | 0 | 0.0 | 0.0 | 0.00 | 0.04 | 0.03 | 71 | 1018.2 |
| 20260504032046 | 63 | 0 | 0.0 | 0.0 | 0.00 | 0.04 | 0.03 | 69 | 1018.2 |
| 20260504031604 | 63 | 0 | 0.0 | 0.0 | 0.00 | 0.04 | 0.03 | 70 | 1018.1 |
| 20260504031045 | 63 | 0 | 0.0 | 0.0 | 0.00 | 0.04 | 0.03 | 69 | 1018.1 |
| 20260504030545 | 63 | 0 | 0.0 | 0.0 | 0.00 | 0.04 | 0.03 | 70 | 1018.2 |
| 20260504030051 | 64 | 0 | 0.0 | 0.0 | 0.00 | 0.04 | 0.03 | 69 | 1018.0 |
| 20260504025547 | 64 | 0 | 0.0 | 0.0 | 0.00 | 0.04 | 0.03 | 67 | 1017.9 |
| 20260504025045 | 65 | 0 | 0.0 | 0.0 | 0.00 | 0.04 | 0.03 | 69 | 1018.0 |
| 20260504024550 | 65 | 0 | 0.0 | 0.0 | 0.00 | 0.04 | 0.03 | 67 | 1018.0 |
| 20260504024047 | 65 | 0 | 0.0 | 0.0 | 0.00 | 0.04 | 0.03 | 66 | 1017.9 |
| 20260504023547 | 66 | 0 | 0.0 | 0.0 | 0.00 | 0.04 | 0.03 | 68 | 1017.9 |
| 20260504023055 | 66 | 0 | 0.0 | 0.0 | 0.00 | 0.04 | 0.03 | 65 | 1017.9 |
| 20260504022547 | 66 | 0 | 0.0 | 0.0 | 0.00 | 0.04 | 0.03 | 64 | 1017.8 |
| 20260504022047 | 67 | 0 | 0.0 | 0.0 | 0.00 | 0.04 | 0.03 | 65 | 1018.0 |
| 20260504021603 | 67 | 0 | 0.0 | 0.0 | 0.00 | 0.04 | 0.03 | 63 | 1018.0 |
| 20260504021045 | 67 | 0 | 0.0 | 0.0 | 0.00 | 0.04 | 0.03 | 63 | 1018.0 |
| 20260504020545 | 67 | 0 | 0.0 | 0.0 | 0.00 | 0.04 | 0.03 | 63 | 1017.9 |
| 20260504020051 | 68 | 0 | 0.0 | 0.0 | 0.00 | 0.04 | 0.03 | 62 | 1017.9 |
| 20260504015546 | 68 | 0 | 0.0 | 0.0 | 0.00 | 0.04 | 0.03 | 62 | 1017.8 |
| 20260504015047 | 69 | 0 | 0.0 | 0.0 | 0.00 | 0.04 | 0.03 | 62 | 1017.6 |
| 20260504014557 | 70 | 0 | 0.0 | 0.0 | 0.00 | 0.04 | 0.03 | 59 | 1017.4 |
| 20260504014046 | 70 | 0 | 0.0 | 0.0 | 0.00 | 0.04 | 0.03 | 58 | 1017.3 |
| 20260504013546 | 71 | 0 | 0.0 | 1.0 | 0.00 | 0.04 | 0.03 | 58 | 1017.2 |
| 20260504013056 | 72 | 0 | 0.0 | 1.0 | 0.00 | 0.04 | 0.03 | 58 | 1017.3 |
| 20260504012545 | 72 | 0 | 0.0 | 1.0 | 0.00 | 0.04 | 0.03 | 56 | 1017.2 |
| 20260504012045 | 73 | 0 | 0.0 | 1.0 | 0.00 | 0.04 | 0.03 | 52 | 1017.3 |
| 20260504011600 | 73 | 0 | 0.0 | 1.0 | 0.00 | 0.04 | 0.03 | 49 | 1017.3 |
| 20260504011048 | 73 | 0 | 0.0 | 2.0 | 0.00 | 0.04 | 0.03 | 49 | 1017.2 |
| 20260504010545 | 74 | 0 | 0.0 | 2.0 | 0.00 | 0.04 | 0.03 | 49 | 1017.3 |
| 20260504010113 | 74 | 0 | 0.0 | 3.0 | 0.00 | 0.04 | 0.03 | 49 | 1017.1 |
| 20260504005547 | 74 | 0 | 0.0 | 3.0 | 0.00 | 0.04 | 0.03 | 48 | 1017.3 |
| 20260504005046 | 74 | 0 | 1.0 | 3.0 | 0.00 | 0.04 | 0.03 | 47 | 1017.2 |
| 20260504004556 | 74 | 0 | 0.0 | 3.0 | 0.00 | 0.04 | 0.03 | 49 | 1017.3 |
| 20260504004046 | 75 | 0 | 0.0 | 4.0 | 0.00 | 0.04 | 0.03 | 47 | 1017.3 |
| 20260504003545 | 75 | 0 | 0.0 | 4.0 | 0.00 | 0.04 | 0.03 | 45 | 1017.3 |
| 20260504003055 | 75 | 0 | 0.0 | 3.0 | 0.00 | 0.04 | 0.03 | 46 | 1017.3 |
| 20260504002545 | 75 | 14 | 0.0 | 3.0 | 0.00 | 0.04 | 0.03 | 44 | 1017.4 |
| 20260504002045 | 75 | 14 | 0.0 | 3.0 | 0.00 | 0.04 | 0.03 | 44 | 1017.5 |
| 20260504001611 | 75 | 19 | 0.0 | 3.0 | 0.00 | 0.04 | 0.03 | 43 | 1017.5 |
| 20260504001048 | 76 | 0 | 0.0 | 3.0 | 0.00 | 0.04 | 0.03 | 43 | 1017.6 |
| 20260504000547 | 76 | 21 | 0.0 | 9.0 | 0.00 | 0.04 | 0.03 | 43 | 1017.7 |
| 20260504000111 | 76 | 0 | 1.0 | 9.0 | 0.00 | 0.04 | 0.03 | 42 | 1017.6 |
| 20260503235546 | 76 | 15 | 0.0 | 4.0 | 0.00 | 0.04 | 0.03 | 42 | 1017.8 |
| 20260503235047 | 76 | 33 | 0.0 | 4.0 | 0.00 | 0.04 | 0.03 | 42 | 1017.9 |
| 20260503234554 | 76 | 0 | 0.0 | 5.0 | 0.00 | 0.04 | 0.03 | 42 | 1017.9 |
| 20260503234046 | 76 | 0 | 2.0 | 5.0 | 0.00 | 0.04 | 0.03 | 42 | 1017.8 |
| 20260503233546 | 76 | 0 | 0.0 | 5.0 | 0.00 | 0.04 | 0.03 | 43 | 1017.9 |
| 20260503233102 | 76 | 25 | 1.0 | 5.0 | 0.00 | 0.04 | 0.03 | 42 | 1017.9 |
| 20260503232545 | 76 | 0 | 2.0 | 6.0 | 0.01 | 0.04 | 0.03 | 43 | 1018.0 |
| 20260503232045 | 76 | 0 | 0.0 | 6.0 | 0.01 | 0.04 | 0.03 | 45 | 1017.9 |
| 20260503231600 | 77 | 27 | 1.0 | 4.0 | 0.01 | 0.04 | 0.03 | 42 | 1018.0 |
| 20260503231045 | 77 | 26 | 1.0 | 5.0 | 0.01 | 0.04 | 0.03 | 42 | 1018.1 |
| 20260503230548 | 77 | 19 | 0.0 | 5.0 | 0.01 | 0.04 | 0.03 | 42 | 1017.9 |
| 20260503230051 | 77 | 19 | 1.0 | 5.0 | 0.01 | 0.04 | 0.03 | 41 | 1017.8 |
| 20260503225546 | 77 | 0 | 1.0 | 4.0 | 0.01 | 0.05 | 0.03 | 42 | 1017.9 |
| 20260503225049 | 77 | 19 | 0.0 | 4.0 | 0.01 | 0.05 | 0.03 | 43 | 1018.0 |
| 20260503224601 | 78 | 28 | 0.0 | 4.0 | 0.01 | 0.05 | 0.03 | 45 | 1018.1 |
| 20260503224047 | 78 | 28 | 1.0 | 4.0 | 0.01 | 0.05 | 0.03 | 42 | 1018.0 |
| 20260503223548 | 78 | 26 | 0.0 | 6.0 | 0.01 | 0.05 | 0.03 | 44 | 1018.2 |
| 20260503223054 | 78 | 41 | 0.0 | 6.0 | 0.01 | 0.05 | 0.03 | 42 | 1018.4 |
| 20260503222545 | 78 | 0 | 0.0 | 4.0 | 0.00 | 0.04 | 0.02 | 44 | 1018.3 |
| 20260503222045 | 78 | 35 | 0.0 | 4.0 | 0.00 | 0.04 | 0.02 | 43 | 1018.5 |
| 20260503221556 | 79 | 0 | 1.0 | 5.0 | 0.00 | 0.04 | 0.02 | 42 | 1018.4 |
| 20260503221049 | 79 | 0 | 1.0 | 6.0 | 0.00 | 0.04 | 0.02 | 42 | 1018.5 |
| 20260503220546 | 79 | 0 | 1.0 | 6.0 | 0.00 | 0.04 | 0.02 | 43 | 1018.6 |
| 20260503220054 | 79 | 20 | 0.0 | 6.0 | 0.00 | 0.04 | 0.02 | 46 | 1018.7 |
| 20260503215546 | 79 | 29 | 0.0 | 4.0 | 0.00 | 0.04 | 0.02 | 43 | 1018.7 |
| 20260503215045 | 79 | 0 | 1.0 | 5.0 | 0.00 | 0.04 | 0.02 | 44 | 1018.8 |
| 20260503214557 | 78 | 41 | 1.0 | 5.0 | 0.00 | 0.04 | 0.02 | 44 | 1018.8 |
| 20260503214050 | 78 | 0 | 1.0 | 8.0 | 0.00 | 0.04 | 0.02 | 42 | 1018.8 |